Маргаритово

Россия / Приморский край     43°24′28″N   134°45′01″E
темп.,
°C
ветер,
м/с
пор.,
м/с
влажн.,
%
обл.,
%
осадки,
мм/ч
давл.,
гПа
погр.,
м
13 мая, чт
чт1301:00+4ююз1299100 0.4 1018114
04:00+4зюз1299100 0.4 1016113
07:00+6зюз129593 0.0 1016195
10:00+11ююз2376100 0.0 1014480
13:00+16ююз3451100 0.0 1012856
16:00+16ю3551100 0.0 1010580
19:00+12ююз117599 0.0 101188
22:00+10сз22775 0.0 101225
14 мая, пт
пт1401:00+10сз32735 0.0 101233
04:00+9ссз32712 0.0 101237
07:00+11ссз23660 0.0 101348
10:00+20з13290 0.0 10142315
13:00+21ю443044 0.0 10131789
16:00+19ю353422 0.0 1012865
19:00+15ююв126078 0.0 101253
22:00+10з1173100 0.0 101410
15 мая, сб
сб1501:00+11юз1171100 0.0 101316
04:00+11з0180100 0.1 101222
07:00+10ююз2692100 0.0 1011214
10:00+16ююз4871100 0.0 1010677
13:00+20ю586195 0.0 1008887
16:00+19ю5964100 0.0 1006696
19:00+15ююз2383100 0.0 1006170
22:00+12с1196100 0.0 100819
16 мая, вс
вс1601:00+13ссв1289100 0.0 100758
04:00+11с1390100 0.1 1008155
07:00+10ссв1293100 0.7 100958
10:00+10сз1188100 0.8 100965
13:00+14ю2262100 0.0 1008583
16:00+14ю2263100 0.0 1007428
19:00+12юз1180100 0.0 100770
22:00+11сз1176100 0.0 100716
17 мая, пн
пн1701:00+9сз2266100 0.0 100728
04:00+9ссз3260100 0.0 100641
07:00+11ссз2359100 0.0 100652
10:00+19вюв1236100 0.0 10051233
13:00+20ююв343544 0.0 10041391
16:00+18ю343797 0.0 1005745
19:00+15ююз12548 0.0 100679
22:00+11сз2261100 0.0 100818